When you browse on this site, cookies collect data to enhance your experience and personalize the content and advertising you see.
Visit our Privacy Policy to learn more. By continuing to use the site, you agree to this use of cookies and data.
  • In Spain
  • List of Countries
  • For 7 days
  • Water Temperature
  • Weather Map
  • Weather Widgets
  • user-avatar
    Login

    Hourly Weather Ibb

    Today, 22 November, Friday

    Time Temperature Precipitation Wind Pressure Humidity
    00:00 +16°C° 0 mm 2 mps 596 mmHg 78%
    01:00 +16°C° 0 mm 2 mps 595 mmHg 78%
    02:00 +16°C° 0 mm 2 mps 595 mmHg 79%
    03:00 +16°C° 0 mm 2 mps 594 mmHg 78%
    04:00 +15°C° 0 mm 2 mps 594 mmHg 79%
    05:00 +15°C° 0 mm 2 mps 595 mmHg 81%
    06:00 +15°C° 0 mm 2 mps 595 mmHg 82%
    07:00 +16°C° 0 mm 2 mps 596 mmHg 74%
    08:00 +17°C° 0 mm 2 mps 597 mmHg 67%
    09:00 +19°C° 0 mm 2 mps 597 mmHg 59%
    10:00 +20°C° 0 mm 3 mps 597 mmHg 55%
    11:00 +20°C° 0 mm 3 mps 598 mmHg 52%
    12:00 +21°C° 0 mm 3 mps 598 mmHg 49%
    13:00 +21°C° 0.3 mm 4 mps 597 mmHg 49%
    14:00 +21°C° 0.3 mm 4 mps 596 mmHg 49%
    15:00 +21°C° 0.3 mm 4 mps 596 mmHg 50%
    16:00 +20°C° 0.1 mm 4 mps 596 mmHg 54%
    17:00 +19°C° 0.1 mm 3 mps 596 mmHg 58%
    18:00 +18°C° 0.1 mm 3 mps 596 mmHg 62%
    19:00 +18°C° 0.1 mm 3 mps 596 mmHg 66%
    20:00 +17°C° 0.1 mm 2 mps 596 mmHg 70%
    21:00 +17°C° 0.1 mm 2 mps 596 mmHg 74%
    22:00 +16°C° 0 mm 2 mps 596 mmHg 76%
    23:00 +16°C° 0 mm 2 mps 596 mmHg 77%

    Tomorrow, 23 November, Saturday

    Time Temperature Precipitation Wind Pressure Humidity
    00:00 +16°C° 0 mm 1 mps 596 mmHg 78%
    01:00 +16°C° 0 mm 1 mps 595 mmHg 79%
    02:00 +15°C° 0 mm 1 mps 595 mmHg 80%
    03:00 +15°C° 0 mm 1 mps 595 mmHg 81%
    04:00 +15°C° 0 mm 1 mps 595 mmHg 81%
    05:00 +15°C° 0 mm 1 mps 595 mmHg 81%
    06:00 +15°C° 0 mm 1 mps 595 mmHg 81%
    07:00 +16°C° 0 mm 1 mps 596 mmHg 73%
    08:00 +18°C° 0 mm 1 mps 597 mmHg 64%
    09:00 +20°C° 0 mm 1 mps 597 mmHg 56%
    10:00 +20°C° 0 mm 2 mps 597 mmHg 53%
    11:00 +21°C° 0 mm 3 mps 597 mmHg 51%
    12:00 +22°C° 0 mm 3 mps 597 mmHg 48%
    13:00 +22°C° 0.1 mm 3 mps 597 mmHg 50%
    14:00 +21°C° 0.1 mm 3 mps 596 mmHg 53%
    15:00 +21°C° 0.1 mm 3 mps 596 mmHg 55%
    16:00 +20°C° 0.2 mm 3 mps 596 mmHg 61%
    17:00 +19°C° 0.2 mm 2 mps 596 mmHg 67%
    18:00 +18°C° 0.2 mm 2 mps 595 mmHg 73%
    19:00 +18°C° 0.2 mm 2 mps 596 mmHg 76%
    20:00 +17°C° 0.2 mm 2 mps 596 mmHg 79%
    21:00 +17°C° 0.2 mm 2 mps 596 mmHg 81%
    22:00 +17°C° 0.1 mm 2 mps 596 mmHg 82%
    23:00 +18°C° 0.1 mm 1 mps 596 mmHg 83%

    Day after tomorrow, 24 November, Sunday

    Time Temperature Precipitation Wind Pressure Humidity
    00:00 +16°C° 0.1 mm 1 mps 595 mmHg 84%
    01:00 +16°C° 0 mm 1 mps 595 mmHg 84%
    02:00 +16°C° 0 mm 1 mps 595 mmHg 85%
    03:00 +16°C° 0 mm 1 mps 594 mmHg 85%
    04:00 +16°C° 0 mm 1 mps 595 mmHg 84%
    05:00 +15°C° 0 mm 1 mps 595 mmHg 83%
    06:00 +15°C° 0 mm 1 mps 595 mmHg 83%
    07:00 +16°C° 0 mm 1 mps 596 mmHg 73%
    08:00 +19°C° 0 mm 1 mps 597 mmHg 64%
    09:00 +20°C° 0 mm 1 mps 597 mmHg 55%
    10:00 +20°C° 0 mm 2 mps 597 mmHg 51%
    11:00 +21°C° 0 mm 2 mps 597 mmHg 47%
    12:00 +22°C° 0 mm 3 mps 597 mmHg 44%
    13:00 +22°C° 0.2 mm 3 mps 597 mmHg 46%
    14:00 +22°C° 0.2 mm 3 mps 597 mmHg 48%
    15:00 +22°C° 0.2 mm 3 mps 596 mmHg 50%
    16:00 +21°C° 0.3 mm 3 mps 596 mmHg 56%
    17:00 +19°C° 0.3 mm 2 mps 596 mmHg 63%
    18:00 +18°C° 0.3 mm 2 mps 596 mmHg 69%
    19:00 +18°C° 0.1 mm 2 mps 596 mmHg 74%
    20:00 +17°C° 0.1 mm 2 mps 596 mmHg 78%
    21:00 +17°C° 0.1 mm 2 mps 596 mmHg 82%
    22:00 +16°C° 0.2 mm 1 mps 596 mmHg 83%
    23:00 +16°C° 0.2 mm 1 mps 595 mmHg 84%

    25 November, Monday

    Time Temperature Precipitation Wind Pressure Humidity
    00:00 +16°C° 0.2 mm 1 mps 595 mmHg 85%
    01:00 +16°C° 0.3 mm 1 mps 595 mmHg 84%
    02:00 +16°C° 0.3 mm 1 mps 595 mmHg 84%
    03:00 +16°C° 0.3 mm 1 mps 595 mmHg 84%
    04:00 +15°C° 0.1 mm 1 mps 595 mmHg 85%
    05:00 +15°C° 0.1 mm 1 mps 595 mmHg 86%
    06:00 +15°C° 0.1 mm 1 mps 595 mmHg 87%
    07:00 +16°C° 0.1 mm 1 mps 596 mmHg 82%
    08:00 +18°C° 0.1 mm 1 mps 596 mmHg 77%
    09:00 +18°C° 0.1 mm 1 mps 597 mmHg 71%
    10:00 +18°C° 0.1 mm 2 mps 597 mmHg 67%
    11:00 +19°C° 0.1 mm 2 mps 596 mmHg 63%
    12:00 +20°C° 0.1 mm 3 mps 596 mmHg 58%
    13:00 +20°C° 0.1 mm 3 mps 596 mmHg 58%
    14:00 +19°C° 0.1 mm 2 mps 595 mmHg 57%
    15:00 +19°C° 0.1 mm 2 mps 595 mmHg 57%
    16:00 +19°C° 0 mm 2 mps 595 mmHg 61%
    17:00 +18°C° 0 mm 2 mps 595 mmHg 65%
    18:00 +18°C° 0 mm 2 mps 595 mmHg 69%
    19:00 +17°C° 0.1 mm 2 mps 595 mmHg 75%
    20:00 +17°C° 0.1 mm 2 mps 595 mmHg 81%
    21:00 +16°C° 0.1 mm 2 mps 596 mmHg 87%
    22:00 +16°C° 0.1 mm 1 mps 596 mmHg 85%
    23:00 +16°C° 0.1 mm 1 mps 595 mmHg 83%

    26 November, Tuesday

    Time Temperature Precipitation Wind Pressure Humidity
    00:00 +16°C° 0.1 mm 1 mps 595 mmHg 82%
    01:00 +16°C° 0.1 mm 1 mps 595 mmHg 81%
    02:00 +15°C° 0.1 mm 1 mps 595 mmHg 81%
    03:00 +14°C° 0.1 mm 0 mps 595 mmHg 80%
    04:00 +14°C° 0 mm 0 mps 595 mmHg 81%
    05:00 +14°C° 0 mm 0 mps 595 mmHg 81%
    06:00 +13°C° 0 mm 0 mps 595 mmHg 82%
    07:00 +16°C° 0 mm 1 mps 596 mmHg 75%
    08:00 +18°C° 0 mm 1 mps 597 mmHg 68%
    09:00 +19°C° 0 mm 1 mps 598 mmHg 61%
    10:00 +19°C° 0.1 mm 2 mps 597 mmHg 59%
    11:00 +20°C° 0.1 mm 2 mps 597 mmHg 57%
    12:00 +20°C° 0.1 mm 3 mps 597 mmHg 54%
    13:00 +20°C° 0.4 mm 3 mps 597 mmHg 57%
    14:00 +20°C° 0.4 mm 3 mps 596 mmHg 61%
    15:00 +19°C° 0.4 mm 3 mps 596 mmHg 64%
    16:00 +19°C° 0.7 mm 2 mps 595 mmHg 68%
    17:00 +18°C° 0.7 mm 2 mps 595 mmHg 72%
    18:00 +18°C° 0.7 mm 1 mps 595 mmHg 76%
    19:00 +18°C° 0.3 mm 1 mps 595 mmHg 78%
    20:00 +18°C° 0.3 mm 1 mps 596 mmHg 81%
    21:00 +16°C° 0.3 mm 1 mps 596 mmHg 83%
    22:00 +16°C° 0.3 mm 1 mps 596 mmHg 82%
    23:00 +16°C° 0.3 mm 1 mps 596 mmHg 82%

    27 November, Wednesday

    Time Temperature Precipitation Wind Pressure Humidity
    00:00 +16°C° 0.3 mm 1 mps 596 mmHg 81%
    01:00 +16°C° 0.1 mm 1 mps 595 mmHg 80%
    02:00 +16°C° 0.1 mm 1 mps 595 mmHg 79%
    03:00 +15°C° 0.1 mm 0 mps 595 mmHg 78%
    04:00 +14°C° 0 mm 0 mps 595 mmHg 79%
    05:00 +14°C° 0 mm 0 mps 595 mmHg 79%
    06:00 +14°C° 0 mm 0 mps 595 mmHg 80%
    07:00 +16°C° 0 mm 1 mps 596 mmHg 73%
    08:00 +18°C° 0 mm 1 mps 597 mmHg 67%
    09:00 +19°C° 0 mm 1 mps 597 mmHg 60%
    10:00 +20°C° 0 mm 1 mps 597 mmHg 56%
    11:00 +21°C° 0 mm 1 mps 597 mmHg 53%
    12:00 +21°C° 0 mm 2 mps 597 mmHg 49%
    13:00 +21°C° 0.1 mm 2 mps 597 mmHg 52%
    14:00 +20°C° 0.1 mm 2 mps 596 mmHg 55%
    15:00 +20°C° 0.1 mm 2 mps 596 mmHg 58%
    16:00 +19°C° 0.3 mm 2 mps 595 mmHg 66%
    17:00 +18°C° 0.3 mm 2 mps 595 mmHg 74%
    18:00 +18°C° 0.3 mm 1 mps 595 mmHg 82%
    19:00 +18°C° 0.3 mm 1 mps 595 mmHg 82%
    20:00 +18°C° 0.3 mm 1 mps 595 mmHg 83%
    21:00 +16°C° 0.3 mm 1 mps 596 mmHg 83%
    22:00 +16°C° 0.1 mm 1 mps 596 mmHg 82%
    23:00 +16°C° 0.1 mm 1 mps 595 mmHg 81%
    Show more